Starlink 30781

operational
NORAD ID: 58123 Int'l Des: 2023-162 Owner: SPXS Country: US Constellation: starlink
LEOCIRCULAR

Starlink 30781について

説明を読み込み中...

リアルタイム位置

3D地球を読み込み中...

次回通過

高度履歴

Altitude vs Time

uPlot chart will show altitude changes over time

軌道要素

1 58123U 23162F 25258.60906666 .00000504 00000-0 52353-4 0 9995
2 58123 43.0056 4.4009 0001441 269.0448 91.0229 15.02540590105964
Epoch: Sep 15, 2025 • Age: 11 hours

現在のステータス

高度 558.6 km
速度 7.59 km/s
衛星直下点 16.26°N, 3.7°W
打ち上げ日 Oct 22, 2023
運用期間 1.9 years
タイプ internet

技術仕様

分類 Payload
質量 730.00 kg
乾燥質量 700.00 kg
総質量 730.00 kg
長さ 0.30 m
直径 4.10 m
スパン 29.00 m
形状 Box + pan
製造者 SPXS
バスタイプ Starlink V2M
フェーズステータス In Orbit
所有者/国 SPXS/US

大規模コンステレーション

Loading constellations...